Regional Weather Roundup
Issued by NWS Sioux Falls, SD

Home | Current Version | Previous Version | Graphics & Text | Print | Product List | Glossary On
Versions: 1 2 3 4 5 6 7 8 9 10 11 12 13 14 15 16 17 18 19 20 21 22 23 24 25 26 27 28 29 30 31 32 33 34 35 36 37 38 39 40 41 42 43 44 45 46 47 48 49 50
000
ASUS43 KFSD 260702
RWRFSD

WEATHER ROUNDUP FOR SE SOUTH DAKOTA/SW MINNESOTA/NW IOWA
NATIONAL WEATHER SERVICE SIOUX FALLS SD
100 AM CST SUN FEB 26 2017

NOTE: "FAIR" INDICATES FEW OR NO CLOUDS BELOW 12,000 FEET WITH NO
SIGNIFICANT WEATHER AND OR OBSTRUCTIONS TO VISIBILITY.


SDZ038>040-050-052>070-260800-
SOUTHEAST SOUTH DAKOTA

CITY           SKY/WX    TMP DP  RH WIND       PRES   REMARKS
BROOKINGS      CLEAR     21  18  88 SW7       29.73S WCI  12
CHAMBERLAIN    PTCLDY    27  23  85 SW5       29.75S WCI  21
HURON          CLOUDY    25  23  92 SW3       29.74F
MADISON        FAIR      21  21 100 W12       29.73F WCI   9
MITCHELL       MOCLDY    26  21  81 SW8       29.76F WCI  18
SIOUX FALLS    CLEAR     21  17  84 SW3       29.76F
WINNER         FAIR      21  12  68 SW10      29.75S WCI  10
YANKTON        PTCLDY    19  12  73 SW3       29.81R
$$

MNZ071-072-080-081-089-090-097-098-260800-
SOUTHWEST MINNESOTA

CITY           SKY/WX    TMP DP  RH WIND       PRES   REMARKS
FAIRMONT       CLOUDY    19  15  84 S12       29.81F WCI   7
JACKSON        CLOUDY    19  14  79 S12       29.78F WCI   7
LUVERNE        CLEAR     16  12  86 CALM      29.78S
MARSHALL       CLOUDY    25  20  81 SW16      29.74S WCI  12
MONTEVIDEO     PTCLDY    27  21  80 W7        29.74F WCI  19
PIPESTONE      CLEAR     21  16  79 SW6       29.74S WCI  14
REDWOOD FALLS  CLOUDY    27  20  75 SW12      29.74F WCI  17
TRACY          CLOUDY    25  21  84 SW13      29.74S WCI  14
WINDOM         PTCLDY    25  19  80 SW8       29.77S WCI  16
WORTHINGTON    CLEAR     20  16  84 SW16      29.76F WCI   6
$$

IAZ001>003-012>014-020>022-031-032-NEZ013-014-SDZ071-260800-
NORTHWEST IOWA

CITY           SKY/WX    TMP DP  RH WIND       PRES   REMARKS
CHEROKEE       MOCLDY    22  18  84 S3        29.82F
DENISON        PTCLDY    27  19  74 S7        29.82F WCI  19
ESTHERVILLE    CLOUDY    18  14  84 S12       29.79F WCI   5
LE MARS        MOCLDY    23  18  80 S6        29.82S WCI  16
SHELDON        CLOUDY    23  23 100 S8        29.77F WCI  14
SIOUX CITY     CLOUDY    20  15  81 E6        29.84R WCI  12
SPENCER        CLOUDY    20  14  77 SW8       29.80F WCI  10
STORM LAKE     CLOUDY    23  18  80 SW9       29.81F WCI  13
$$

ABBREVIATIONS USED IN REMARKS
   TC - TEMPERATURE IN CELSIUS
  WCI - WIND CHILL INDEX
   HX - HEAT INDEX
  VSB - VISIBILITY





USA.gov is the U.S. government's official web portal to all federal, state and local government web resources and services.